CAPE
0 0 1 14 0 0 0 0 2 0 3 22 16 13 0 0 0 3 37 17 12 19 8 0 4 8 19 5 5 67 31 101 61 37 49 0 0 0 0 0 0 0 0 2
1 0 10 14 6 0 4 3 0 0 17 8 3 7 9 2 2 3 16 29 30 32 18 14 2 4 31 8 37 54 4 100 44 51 91 69 71 11 1 1 5 21 52 76
0 0 5 24 18 0 2 8 6 1 26 10 6 6 9 8 4 5 9 15 14 13 21 25 11 13 0 0 35 7 48 52 47 42 43 61 57 84 54 48 55 24 25 39
0 0 8 26 17 1 0 8 2 0 7 11 2 1 1 8 3 1 9 11 7 7 6 38 29 20 5 4 13 25 29 72 51 32 21 31 53 40 32 24 24 21 31 3
0 0 11 20 26 2 2 79 7 0 1 0 1 0 1 1 2 0 0 28 7 2 12 32 33 37 43 21 16 10 31 38 4 5 4 19 9 0 2 0 0 0 0 8
3 2 10 26 40 3 10 1 0 4 1 0 0 1 2 4 0 0 0 0 0 0 14 1 0 48 89 67 36 13 24 45 20 19 7 15 7 0 0 9 12 4 22 36
9 2 9 32 37 3 3 0 11 13 18 0 3 0 0 0 0 0 0 0 2 0 0 9 102 153 135 99 74 35 35 29 33 29 11 10 100 125 38 16 32 7 4 19
16 6 5 29 34 22 0 0 21 19 27 8 1 0 0 0 0 0 0 1 1 0 49 141 77 109 146 111 110 65 27 27 45 33 34 5 0 45 58 61 20 12 4 14
21 0 10 24 42 43 0 0 3 14 18 15 0 0 0 6 7 8 1 1 0 24 66 116 69 85 26 52 126 84 29 25 60 34 19 11 125 10 30 147 21 14 8 4
21 2 9 22 40 40 33 3 2 7 25 1 9 16 16 0 5 17 12 3 1 34 8 103 62 94 92 88 71 71 124 173 126 45 32 1 4 0 6 140 19 6 5 6
25 5 4 24 30 25 51 6 2 11 13 3 2 0 4 4 8 24 20 15 32 44 43 78 107 145 135 141 95 169 116 106 82 47 21 3 1 49 68 12 6 4 4 3
29 10 0 12 30 20 56 23 2 7 8 25 7 5 2 2 6 15 13 19 16 28 35 38 25 148 209 141 112 158 162 91 69 112 125 8 6 6 0 2 8 7 4 4
41 20 0 14 33 25 48 12 4 6 5 25 10 1 0 0 2 0 18 12 17 42 43 44 35 20 25 178 153 94 91 8 22 29 20 20 17 18 5 2 3 1 2 3
43 20 10 21 36 38 49 12 5 8 16 21 5 0 0 0 0 2 3 16 34 47 44 42 24 19 18 110 125 66 14 12 20 29 26 14 9 17 20 6 3 0 0 0
36 20 16 36 36 41 93 18 3 6 25 22 8 0 0 0 0 0 5 16 20 30 33 37 23 20 24 26 58 13 9 6 11 19 17 8 11 10 7 3 1 0 0 0
31 14 15 24 36 47 5 1 10 5 14 31 15 0 0 0 0 2 11 21 5 16 34 35 27 11 34 46 13 7 14 11 10 17 12 9 11 11 11 5 4 0 0 0
22 17 24 31 49 82 6 48 18 7 13 41 5 9 0 5 9 4 1 3 19 10 17 39 29 33 64 12 8 7 6 7 9 20 22 7 10 8 8 6 3 0 0 0
20 18 30 49 43 42 10 8 7 11 18 20 6 5 3 11 27 34 15 7 25 40 36 38 60 6 32 12 4 3 4 5 5 12 9 8 8 7 4 1 1 0 0 0
19 20 21 42 20 5 4 1 13 41 22 3 4 12 25 45 18 42 55 18 19 55 42 53 45 31 21 5 2 2 1 0 0 2 6 7 5 2 0 0 1 1 1 1
27 38 8 3 4 15 0 1 4 9 11 52 13 5 15 23 15 67 116 46 24 24 15 43 60 2 4 3 4 1 0 0 0 3 1 1 2 1 1 1 0 1 1 1
20 1 3 13 8 16 5 17 33 43 17 8 13 12 35 16 17 65 36 17 46 15 53 48 32 5 6 6 5 2 0 0 0 0 0 1 1 2 2 1 1 1 1 2
4 5 10 8 12 10 20 36 22 8 3 10 3 8 9 36 10 39 38 173 38 23 17 46 12 6 6 6 3 1 1 0 0 1 2 2 2 2 1 1 2 3 2 2
17 13 2 10 6 22 21 9 13 7 10 10 19 29 37 30 15 6 38 112 117 6 40 10 6 8 7 4 0 0 0 0 0 2 2 2 2 1 2 2 3 3 2 2
4 2 1 10 5 8 14 12 5 5 11 19 33 30 55 24 16 8 7 6 18 31 6 4 8 10 7 4 1 0 1 1 2 2 2 1 1 1 1 1 1 0 1 1
4 0 1 2 4 4 6 4 8 4 3 11 8 7 6 3 4 3 5 6 2 1 5 8 14 8 5 3 2 2 1 0 2 2 1 1 0 1 1 1 2 1 1 1
0 0 4 7 8 7 5 9 5 2 2 2 5 1 2 1 0 1 1 1 3 7 9 12 9 3 2 2 2 2 2 3 4 3 3 2 1 1 3 2 1 1 1 1
0 7 8 9 7 6 3 3 5 3 5 12 0 1 2 0 0 0 0 5 8 15 16 14 8 4 3 2 2 1 2 3 3 3 2 3 3 2 3 3 5 4 2 2
CIN
-0 -0 -0 -0 -0 -0 -0 -0 -0 -0 -0 -0 -0 -0 -0 -0 -0 -0 -0 -0 -0 -0 -0 -0 -1 -0 -0 -0 -0 -12 -69 -36 -0 -0 -25 -15 -0 -0 -0 -0 -0 -0 -0 -0
-0 -0 -0 -0 -0 -0 -0 -0 -0 -0 -0 -0 -0 -0 -0 -0 -0 -0 -0 -0 -0 -0 -0 -0 -0 -0 -0 -0 -1 -2 -0 -18 -0 -4 -13 -13 -0 -11 -0 -0 -0 -0 -0 -0
-0 -0 -0 -0 -0 -0 -0 -0 -0 -0 -0 -0 -0 -0 -0 -0 -0 -0 -0 -0 -0 -0 -0 -0 -0 -0 -0 -0 -31 -76 -5 -21 -7 -1 -6 -9 -8 -3 -4 -0 -0 -0 -0 -0
-0 -0 -0 -0 -2 -1 -0 -0 -0 -0 -0 -0 -0 -0 -0 -0 -0 -0 -0 -0 -0 -0 -0 -0 -0 -0 -8 -0 -3 -31 -30 -11 -28 -34 -55 -50 -16 -10 -7 -2 -0 -0 -0 -1
-0 -0 -1 -1 -1 -2 -0 -0 -0 -0 -0 -0 -0 -0 -0 -0 -0 -0 -0 -0 -0 -0 -0 -0 -1 -0 -0 -0 -12 -20 -3 -2 -0 -72 -67 -47 -34 -0 -22 -0 -0 -0 -0 -0
-0 -1 -1 -1 -0 -12 -0 -0 -0 -0 -0 -0 -0 -0 -0 -0 -0 -0 -0 -0 -0 -0 -0 -1 -0 -2 -1 -0 -3 -0 -2 -0 -12 -21 -0 -0 -0 -0 -0 -0 -0 -0 -1 -2
-0 -0 -0 -2 -0 -22 -8 -2 -0 -0 -0 -0 -0 -0 -0 -0 -0 -0 -0 -0 -0 -0 -0 -8 -5 -2 -9 -8 -4 -11 -4 -0 -0 -0 -0 -0 -1 -0 -10 -0 -16 -0 -0 -1
-0 -0 -0 -1 -2 -3 -2 -0 -0 -0 -0 -0 -0 -0 -0 -0 -0 -0 -0 -0 -0 -0 -1 -0 -3 -1 -3 -6 -1 -0 -4 -1 -0 -0 -0 -1 -0 -8 -2 -3 -1 -2 -7 -0
-1 -0 -2 -0 -3 -3 -0 -0 -0 -0 -0 -0 -0 -0 -0 -0 -0 -0 -0 -3 -0 -0 -2 -0 -0 -0 -13 -0 -0 -1 -10 -1 -1 -0 -0 -0 -0 -0 -0 -0 -1 -0 -0 -0
-1 -2 -1 -1 -1 -6 -0 -0 -0 -0 -0 -0 -0 -0 -0 -0 -0 -0 -0 -0 -0 -0 -0 -0 -0 -0 -0 -0 -0 -0 -0 -2 -0 -3 -0 -0 -0 -0 -21 -0 -5 -0 -0 -0
-1 -2 -5 -1 -0 -8 -0 -0 -0 -0 -0 -0 -0 -0 -0 -0 -0 -0 -0 -0 -0 -0 -0 -1 -0 -0 -1 -0 -0 -0 -0 -0 -0 -0 -2 -0 -0 -2 -3 -0 -0 -0 -0 -0
-0 -3 -0 -1 -0 -2 -1 -1 -0 -1 -0 -0 -0 -0 -0 -0 -1 -0 -0 -0 -0 -0 -0 -0 -1 -0 -0 -0 -0 -2 -0 -0 -0 -0 -0 -0 -0 -0 -0 -0 -0 -0 -0 -0
-1 -2 -0 -1 -0 -0 -0 -1 -0 -0 -0 -0 -0 -0 -0 -0 -0 -0 -0 -0 -0 -0 -0 -0 -0 -0 -0 -0 -0 -0 -2 -3 -0 -0 -0 -0 -0 -0 -0 -0 -0 -0 -0 -0
-1 -1 -0 -0 -0 -0 -1 -0 -0 -0 -0 -0 -0 -0 -0 -0 -0 -0 -0 -0 -0 -0 -0 -0 -0 -0 -0 -0 -0 -0 -0 -1 -0 -0 -0 -0 -0 -0 -0 -0 -0 -0 -0 -0
-1 -0 -0 -1 -0 -0 -0 -0 -0 -0 -0 -0 -0 -0 -0 -0 -0 -0 -0 -0 -0 -0 -0 -0 -0 -0 -0 -5 -6 -0 -0 -0 -0 -0 -0 -0 -0 -0 -0 -0 -0 -0 -0 -0
-1 -0 -0 -0 -0 -2 -0 -0 -0 -0 -0 -0 -0 -0 -0 -0 -0 -0 -0 -0 -1 -0 -0 -0 -0 -0 -0 -13 -0 -0 -0 -0 -0 -0 -0 -0 -0 -0 -0 -0 -0 -0 -0 -0
-3 -0 -0 -0 -0 -0 -0 -0 -0 -0 -0 -0 -0 -0 -0 -0 -0 -0 -1 -0 -0 -0 -0 -0 -0 -0 -0 -0 -0 -0 -0 -0 -0 -0 -0 -0 -0 -0 -0 -0 -0 -0 -0 -0
-1 -0 -0 -0 -2 -0 -0 -0 -0 -0 -0 -0 -0 -0 -0 -0 -0 -0 -0 -0 -0 -0 -0 -0 -0 -1 -0 -0 -0 -0 -0 -0 -0 -0 -0 -0 -0 -0 -0 -0 -0 -0 -0 -0
-0 -1 -0 -0 -0 -0 -0 -2 -0 -1 -0 -0 -0 -0 -0 -0 -0 -0 -0 -0 -1 -0 -0 -0 -0 -0 -0 -0 -0 -0 -0 -0 -0 -0 -0 -0 -0 -0 -0 -0 -0 -0 -0 -0
-0 -0 -0 -0 -0 -0 -1 -0 -0 -0 -0 -0 -0 -0 -0 -0 -0 -0 -0 -0 -0 -0 -0 -0 -0 -0 -0 -0 -0 -0 -0 -0 -0 -0 -0 -0 -0 -0 -0 -0 -0 -0 -0 -0
-0 -0 -0 -0 -0 -0 -0 -0 -0 -0 -0 -0 -0 -0 -0 -0 -0 -0 -0 -1 -0 -0 -0 -0 -0 -0 -0 -0 -0 -0 -0 -0 -0 -0 -0 -0 -0 -0 -0 -0 -0 -0 -0 -0
-0 -0 -0 -0 -0 -1 -1 -0 -0 -0 -0 -0 -0 -0 -0 -2 -1 -1 -0 -0 -0 -0 -1 -0 -0 -0 -0 -0 -0 -0 -0 -0 -0 -0 -0 -0 -0 -0 -0 -0 -0 -0 -0 -0
-0 -2 -0 -0 -0 -0 -0 -0 -0 -0 -0 -0 -0 -0 -0 -0 -0 -1 -0 -0 -0 -0 -0 -0 -0 -0 -0 -0 -0 -0 -0 -0 -0 -0 -0 -0 -0 -0 -0 -0 -0 -0 -0 -0
-0 -0 -0 -0 -0 -0 -0 -0 -0 -0 -0 -0 -47 -0 -1 -0 -0 -0 -0 -0 -0 -0 -0 -0 -0 -0 -0 -0 -0 -0 -0 -0 -0 -0 -0 -0 -0 -0 -0 -0 -0 -0 -0 -0
-0 -0 -0 -0 -0 -0 -0 -0 -0 -0 -0 -0 -0 -1 -0 -0 -0 -0 -0 -0 -0 -0 -0 -0 -0 -0 -0 -0 -0 -0 -0 -0 -0 -0 -0 -0 -0 -0 -0 -0 -0 -0 -0 -0
-0 -0 -0 -0 -0 -0 -0 -0 -0 -0 -0 -0 -0 -0 -0 -0 -0 -0 -0 -0 -0 -0 -0 -0 -0 -0 -0 -0 -0 -0 -0 -0 -0 -0 -0 -0 -0 -0 -0 -0 -0 -0 -0 -0
-0 -0 -0 -0 -0 -0 -0 -0 -0 -0 -0 -0 -0 -0 -0 -0 -0 -0 -0 -0 -0 -0 -0 -0 -0 -0 -0 -0 -0 -0 -0 -0 -0 -0 -0 -0 -0 -0 -0 -0 -0 -0 -0 -0
Wind_Speed
2 3 6 6 7 8 5 2 0 5 6 1 1 4 6 6 8 8 3 8 12 12 18 11 10 12 9 11 6 8 8 5 7 9 4 5 14 16 15 8 9 10 10 5
3 4 6 5 5 3 2 2 2 2 5 1 3 5 3 2 8 10 8 9 11 15 10 7 11 13 9 14 11 10 7 2 6 6 6 5 8 9 14 13 8 10 8 4
3 5 7 7 4 4 1 1 1 2 1 1 3 6 5 7 5 5 8 7 10 15 9 9 9 13 10 15 13 13 6 3 5 3 5 2 6 9 10 12 9 9 8 4
4 6 8 8 3 9 3 2 1 3 0 1 5 5 3 5 8 4 6 2 12 12 6 10 9 13 16 7 8 7 5 5 6 6 4 4 5 6 9 12 11 6 4 5
5 7 8 8 7 10 2 3 2 3 2 4 5 2 1 4 7 6 6 7 14 14 9 9 16 16 13 6 4 8 5 2 4 5 5 6 9 11 11 10 7 7 7 7
6 7 8 7 15 8 2 2 1 4 2 2 3 2 3 3 8 5 5 9 15 13 10 15 20 18 16 15 14 7 5 4 4 0 1 3 8 13 13 10 4 5 8 7
8 8 6 6 15 8 2 2 2 2 3 4 4 5 7 10 10 12 13 13 11 8 17 22 19 15 15 15 13 10 5 7 4 2 5 5 6 5 9 6 3 3 5 3
9 8 6 6 5 18 2 2 3 3 4 5 6 8 9 9 9 12 12 8 7 13 15 10 8 4 5 8 9 9 9 5 4 4 5 3 6 4 2 4 5 6 3 3
9 8 7 7 7 7 4 3 3 2 2 3 6 5 4 6 4 5 3 7 8 7 4 4 5 3 4 1 5 7 5 9 7 2 4 2 7 6 13 7 4 4 7 8
10 9 7 8 8 7 5 3 8 3 3 9 9 6 5 3 5 5 5 7 4 5 4 5 2 3 5 3 4 1 3 4 9 7 5 1 8 9 14 6 5 8 8 9
11 10 9 8 8 8 4 2 11 5 4 8 8 9 10 7 5 6 7 6 2 2 4 4 4 3 3 4 4 4 5 4 1 3 3 3 16 1 6 5 8 8 10 9
12 10 10 9 10 9 4 2 7 6 2 4 5 10 15 15 11 7 3 5 6 2 4 3 4 4 4 6 2 3 1 5 5 6 4 7 9 9 9 7 9 9 10 7
13 11 11 10 11 10 8 2 4 3 1 3 6 12 14 15 13 9 4 3 5 4 3 3 3 5 1 4 3 4 3 5 3 4 7 7 8 10 11 11 10 10 9 8
12 11 12 11 11 11 8 3 5 3 2 4 4 1 7 5 11 15 15 11 3 3 2 3 3 5 2 4 6 6 4 6 5 3 5 5 10 9 8 9 9 9 11 10
12 12 12 11 11 11 7 4 7 7 3 2 4 7 9 9 8 12 11 12 11 5 2 3 4 4 4 4 4 3 4 4 4 4 6 4 6 7 8 10 11 10 8 7
14 13 12 11 11 9 1 0 4 8 5 2 4 3 1 2 6 9 9 7 5 3 4 3 3 4 3 3 2 5 5 5 6 3 7 12 9 8 9 9 8 9 8 7
13 13 13 13 11 4 3 2 3 13 5 2 4 3 4 3 6 4 3 6 3 4 4 4 5 5 6 2 3 6 6 6 7 6 3 7 7 5 6 7 6 5 7 7
14 13 14 12 13 6 4 2 11 10 3 3 3 3 3 9 4 4 5 4 4 7 4 3 3 2 3 2 6 5 4 4 7 8 10 10 8 7 5 3 3 5 6 7
12 11 11 5 4 3 3 13 17 3 2 3 3 3 1 3 3 2 3 3 4 4 5 4 3 3 3 4 5 6 6 5 4 3 6 7 7 5 4 4 5 5 6 6
8 3 4 4 4 17 14 3 2 2 3 3 4 3 3 5 3 4 3 3 3 4 5 3 4 3 6 6 6 6 6 7 7 3 3 4 4 5 5 6 6 6 6 5
3 4 3 3 17 3 2 4 4 5 4 5 5 8 5 4 3 4 3 2 3 3 4 5 4 3 5 6 7 6 7 7 8 7 6 5 4 5 5 6 7 6 7 7
5 4 3 3 3 3 5 7 5 6 6 6 5 4 6 3 2 2 4 3 5 5 6 4 3 5 7 6 6 7 7 7 8 7 7 8 8 7 7 7 7 7 8 7
3 3 5 4 3 7 8 11 5 6 5 7 5 5 4 3 3 2 3 6 3 7 4 2 4 7 6 6 6 7 7 7 8 9 10 10 10 10 9 8 7 7 8 7
5 6 6 6 6 6 3 5 6 3 4 8 7 3 3 2 4 0 4 2 3 5 5 3 4 6 5 6 5 6 8 8 8 8 8 9 9 9 8 7 6 6 7 7
2 3 5 5 3 2 3 3 5 2 1 4 4 3 2 2 2 0 2 3 2 3 4 3 5 6 5 6 6 7 7 6 7 7 7 7 7 8 8 7 7 7 7 8
2 4 4 4 6 4 3 4 4 2 1 2 2 3 3 2 0 3 1 3 1 4 3 5 6 6 6 6 7 7 6 7 7 7 7 7 6 7 7 7 7 7 7 7
4 3 4 3 5 5 3 2 3 2 1 2 2 4 3 3 3 4 3 3 4 7 6 5 7 7 7 7 7 6 6 7 7 7 6 6 6 5 5 7 6 6 6 5
Wind_Direction
288 326 318 317 330 330 284 322 79 16 317 290 63 10 338 335 320 330 334 304 336 344 333 334 8 28 33 356 346 345 8 331 169 110 64 143 198 206 201 213 182 237 266 266
288 319 331 344 326 332 333 350 13 95 288 36 17 346 344 320 334 338 350 355 345 337 331 330 358 350 26 4 16 357 347 29 179 174 165 159 191 199 214 231 278 246 227 153
274 312 316 310 288 166 276 310 97 97 117 132 358 347 9 13 346 307 332 323 349 345 339 346 324 347 350 350 8 3 300 291 298 297 74 71 201 188 211 217 232 233 234 219
276 291 307 309 256 174 247 8 65 23 58 38 331 311 310 7 12 331 315 294 7 353 319 323 8 351 336 356 358 355 10 296 310 297 288 282 267 239 214 223 241 260 330 256
266 277 307 312 184 158 225 153 214 171 302 286 312 310 317 350 342 323 330 310 342 329 302 302 308 319 319 318 335 338 6 320 340 284 234 244 253 245 243 239 237 251 257 258
252 265 302 304 170 169 185 167 167 292 148 243 281 303 323 307 331 300 289 328 319 312 307 311 296 288 278 273 290 299 318 310 309 147 226 276 252 235 234 232 236 285 268 29
242 250 291 282 188 188 122 200 218 199 272 256 281 281 289 289 295 283 293 298 290 295 315 299 274 256 252 251 249 243 269 319 291 290 245 219 50 316 234 214 115 61 84 44
232 244 288 272 225 196 134 158 215 220 273 296 274 268 277 290 277 275 281 297 297 307 296 294 302 199 196 229 222 228 229 273 291 284 266 305 181 22 15 213 81 41 46 303
225 235 273 263 250 234 155 174 132 189 284 251 278 286 288 299 298 280 248 319 313 297 279 281 307 338 311 68 148 48 195 234 278 257 286 263 57 325 336 284 128 24 56 32
223 229 259 271 255 264 183 170 167 142 219 258 249 257 303 274 273 280 308 340 321 302 334 287 302 308 331 319 353 227 179 180 222 229 266 82 10 335 303 236 75 53 54 49
220 229 243 272 264 273 210 168 190 175 212 261 231 243 249 254 247 281 342 302 165 319 288 303 347 294 4 291 26 0 348 312 232 207 251 254 2 350 344 82 77 81 61 49
216 230 239 264 261 266 265 199 189 189 197 309 320 278 264 262 276 293 262 321 314 327 310 353 316 313 325 332 359 46 16 16 326 328 18 48 35 53 39 57 76 62 70 60
216 227 234 256 259 261 251 180 143 112 221 264 246 247 252 236 232 233 249 239 260 232 1 297 317 290 8 313 32 307 96 42 302 315 36 66 63 57 50 60 66 59 58 60
216 231 234 252 260 260 258 179 157 164 176 263 249 219 243 242 214 213 222 252 222 342 304 303 291 284 284 300 319 311 15 319 340 99 121 82 53 53 51 57 57 61 57 44
215 230 236 251 266 263 273 193 180 170 233 291 291 296 262 229 200 202 212 223 237 248 266 263 266 274 306 257 268 84 5 13 335 12 342 61 64 69 64 60 45 43 46 52
217 234 240 249 260 268 86 301 196 186 193 265 278 8 205 83 186 197 195 197 202 214 212 246 267 326 263 284 311 79 75 52 17 5 41 87 89 69 61 71 55 39 49 41
220 232 242 251 253 245 196 278 95 168 122 209 270 244 144 138 137 139 150 181 183 202 234 222 242 268 221 256 287 103 80 56 31 43 147 92 43 77 71 73 78 80 61 49
225 232 245 253 272 236 168 218 149 138 118 213 256 260 224 175 168 161 163 173 208 202 221 213 238 251 288 269 101 82 47 87 45 43 61 78 89 70 52 70 81 71 53 50
228 246 259 263 207 168 171 151 154 128 236 207 214 249 200 173 172 129 168 176 192 180 224 224 211 197 222 55 105 81 49 47 10 67 80 85 75 67 52 31 42 59 52 45
234 245 214 197 199 126 102 54 124 150 224 246 235 227 219 204 168 169 174 189 218 207 211 182 228 87 85 75 73 71 51 34 11 205 41 21 65 56 48 49 38 39 47 46
167 207 209 103 155 107 139 144 185 156 214 210 224 220 194 194 193 177 224 186 207 231 165 219 184 154 107 109 86 59 47 44 49 51 45 31 19 24 46 57 53 53 56 55
203 185 135 123 170 161 187 170 151 195 217 175 198 188 216 152 155 202 171 246 185 231 145 215 210 90 119 112 88 72 60 50 58 54 56 39 41 33 51 55 57 58 68 65
273 208 154 180 152 187 201 175 178 189 184 171 167 163 162 139 201 216 226 228 191 129 199 67 45 114 110 106 98 74 58 58 66 65 64 67 63 50 59 72 64 77 73 69
229 151 157 212 184 219 176 176 152 107 150 161 155 129 172 133 181 29 256 31 219 188 200 119 124 109 96 80 72 80 69 66 72 72 74 74 74 72 67 65 67 74 71 63
167 159 179 183 82 85 111 103 121 71 111 124 121 102 106 69 159 337 283 197 140 12 68 94 106 102 91 80 79 88 88 83 81 85 83 80 79 77 72 61 62 66 66 65
79 40 129 130 146 124 109 108 104 28 84 109 102 128 148 118 152 200 65 278 79 95 94 104 112 99 91 92 88 87 89 94 96 94 95 93 88 84 81 72 66 63 67 69
76 92 46 79 71 90 83 45 56 341 247 110 147 160 89 120 140 127 6 45 96 126 112 99 94 106 105 105 104 105 108 105 103 103 99 99 104 117 104 89 87 87 85 85